カタログに戻る

THOR ABLESTAR DEB

運用中PO
NORAD 5265·DEBRIS·🇺🇸 United States

打ち上げ Aug 13, 1965 から Vandenberg Space Force Base

Loading…

次のパス (今後24時間)

TLE

最新Source: Space-Track

元期: Sep 14, 2026, 14:36 UTC

1 05265U 65065Q   26257.60878487  .00000124  00000-0  20188-3 0  9999
2 05265  90.1282 306.9348 0043577  98.7747  53.5925 13.42528663984610

AllMySatでTHOR ABLESTAR DEBをリアルタイム追跡

Download on the App Store